sat.trackr.live / text

‹ back to catalog

STARLINK-31016

NORAD 58548 · 2023-192T

PAYLOAD ACTIVE UNKNOWN

§ Identity

Operator
Country
US
Launch date
2023-12-08
Launch site
AFWTR
Launch vehicle
Mass (kg)
RCS (m²)

Purposes: comms

External: N2YO · Heavens-Above · Gunter

§ Orbital elements

Epoch: 2026-09-20T08:27:22.053312Z

Period
93.85 min
Inclination
53.1578°
Eccentricity
0.0001239
Mean motion
15.34400548 rev/d
Perigee alt
461.9 km
Apogee alt
463.5 km
Semi-major
6,840.8 km
B*
7.9408e-5
RAAN
236.0606°
Arg perigee
86.0710°
Mean anomaly
274.0434°
Rev number
15,582

§ Raw data

STARLINK-310161 58548U 23192T   26263.35233858  .00002308  00000+0  79408-4 0  99972 58548  53.1578 236.0606 0001239  86.0710 274.0434 15.34400548155820

JSON: /api/v1/satellites/58548 · /tle

For live sub-satellite position, see the globe view (requires WebGL).

§ Visibility from observer

Set your observer location to see the next 7 days of passes ≥ 10°. The values pass through the URL so the page stays shareable.

No JS? Fill the form by hand. The geolocation button needs JavaScript.